x

South Hecate Strait (46185) Wave Buoy

7:00pm - Fri 26th May 2017 All times are PDT. -7 hours from GMT.

  • Sig Wave height 4.9ft
  • Peak Period 6s
  • Wind
    20mph, 22mph gusts
  • Sea Temp 52°f
  • Air Temp 52°f
  • Sea Pressure 1018.9mb
  • South Hecate Strait
  • South Hecate Strait

More Historic Weather Station data

Upgrade to MSW Pro to gain access to the past 30 days of data for over 8000 Wavebouys and Weather Stations around the globe.

Join Pro

Comparision Forecast

View Surf forecast
   
Fri 05/26 7:00pm 5ft 6s 20 22 mph 1018.9mb 52f 52f
6:00pm 5ft 6s 20 25 mph 1018.7mb 52f 52f
5:00pm 5ft 6s 18 20 mph 1018.9mb 52f 51f
4:00pm 5ft 7s 18
mph
1018.7mb 52f 51f
3:00pm 6ft 7s 18 22 mph 1018.7mb 52f 50f
2:00pm 6.5ft 7s 20 22 mph 1018.5mb 51f 50f
1:00pm 6.5ft 7s 20 25 mph 1018.4mb 51f 50f
12:00pm 7ft 7s 25 29 mph 1018.1mb 51f 49f
11:00am 7ft 7s 25 29 mph 1018mb 51f 49f
10:00am 8ft 7s 25 31 mph 1018mb 51f 49f
9:00am 7.5ft 7s 27 29 mph 1017.8mb 51f 49f
8:00am  -   -  25
mph
1017.6mb - 49f
6:00am 8.5ft 7s 22 27 mph 1016.8mb 51f 49f
5:00am 8ft 7s 27 34 mph 1016.4mb 51f 49f
4:00am 8.5ft 7s 27 34 mph 1016.5mb 51f 50f
3:00am 8ft 7s 27 34 mph 1016.4mb 51f 50f
2:00am 8.5ft 7s 29 34 mph 1015.8mb 51f 50f
1:00am 8.5ft 8s 27 31 mph 1015.7mb 51f 50f
12:00am 8ft 7s 29 36 mph 1015.6mb 51f 50f
Thu 05/25 11:00pm 9ft 8s 27 34 mph 1015.6mb 51f 51f
10:00pm 9ft 7s 29 34 mph 1015.6mb 51f 51f
9:00pm  -   -  27
mph
1015.4mb - 51f
8:00pm 8ft 7s 29 34 mph 1015.4mb 51f 51f
7:00pm 8ft 7s 25 31 mph 1015.8mb 51f 51f
6:00pm 8ft 7s 29 36 mph 1015.8mb 51f 51f
5:00pm 8ft 7s 27 34 mph 1016mb 52f 51f
4:00pm 8.5ft 7s 29 34 mph 1016.3mb 52f 50f
3:00pm 8ft 7s 29 36 mph 1016.3mb 52f 50f
2:00pm 8ft 7s 31 38 mph 1016.3mb 52f 50f
1:00pm 9ft 7s 27 36 mph 1016.5mb 52f 50f
12:00pm 8.5ft 8s 29 36 mph 1016.4mb 52f 50f
11:00am 9ft 8s 29 36 mph 1016.6mb 52f 50f
9:00am 9ft 8s 29 36 mph 1017.2mb 52f 50f
8:00am 9.5ft 7s 31 38 mph 1017.1mb 52f 50f
7:00am 10ft 8s 29 40 mph 1017.2mb 52f 50f
6:00am 9.5ft 8s 31 36 mph 1017.6mb 53f 50f
5:00am 10ft 8s 29 36 mph 1017.8mb 53f 49f
4:00am 9ft 7s 29 38 mph 1017.8mb 53f 50f
3:00am 9ft 8s 29 36 mph 1018mb 53f 50f
2:00am 9ft 8s 29 36 mph 1018mb 53f 50f
1:00am 9ft 8s 31 38 mph 1018.1mb 53f 50f
12:00am 9.5ft 8s 31 40 mph 1018.2mb 53f 50f
Wed 05/24 11:00pm 9ft 8s 29 36 mph 1018.6mb 53f 51f
10:00pm 9ft 7s 29 38 mph 1019.1mb 53f 50f
9:00pm 9ft 7s 31 38 mph 1019.1mb 53f 50f
8:00pm 9.5ft 8s 29 36 mph 1019.5mb 53f 51f
7:00pm 9ft 8s 29 36 mph 1019.9mb 53f 51f
6:00pm 8.5ft 7s 27 34 mph 1020.4mb 53f 50f
5:00pm 9ft 8s 27 31 mph 1021.1mb 53f 50f
4:00pm 10ft 8s 29 36 mph 1021.2mb 52f 50f
3:00pm 10.5ft 8s 29 34 mph 1021.6mb 53f 50f
2:00pm 10ft 8s 27 34 mph 1021.9mb 52f 50f
1:00pm 11ft 9s 31 38 mph 1021.7mb 52f 49f
12:00pm 12ft 9s 29 36 mph 1021.7mb 52f 49f
11:00am 12ft 9s 29 36 mph 1022.1mb 52f 49f
10:00am 12ft 10s 31 36 mph 1022.3mb 52f 49f
9:00am 12.5ft 9s 31 40 mph 1022.5mb 52f 49f
8:00am 11.5ft 8s 29 40 mph 1022.5mb 52f 49f
7:00am 10.5ft 8s 36 45 mph 1021.3mb 52f 49f
6:00am  -   -  31
mph
- - -
5:00am 11ft 8s 34 40 mph 1021.4mb 53f 48f
4:00am 10.5ft 8s 31 40 mph 1021.1mb 53f 51f
3:00am 8.5ft 7s 29 36 mph 1020.6mb 53f 51f
2:00am 7ft 5s 27 31 mph 1020.2mb 53f 52f
1:00am 5.5ft 9s 25 31 mph 1020mb 54f 52f
12:00am 6ft 9s 25 31 mph 1019.6mb 54f 52f
Tue 05/23 11:00pm 5.5ft 10s 18 20 mph 1019.4mb 53f 53f
10:00pm 5ft 8s 13 16 mph 1019mb 53f 52f
9:00pm 5ft 9s 13 16 mph 1018.5mb 53f 52f
8:00pm 5ft 8s 11 13 mph 1018.4mb 53f 51f
7:00pm 5.5ft 8s 16 20 mph 1018mb 53f 51f
6:00pm 5.5ft 5s 18 20 mph 1017.5mb 53f 50f
5:00pm 6ft 5s 20 22 mph 1017.3mb 54f 50f
4:00pm 6ft 5s 20 25 mph 1016.7mb 53f 50f
3:00pm 6ft 6s 20 25 mph 1016.5mb 53f 50f
2:00pm 7ft 6s 22 27 mph 1015.7mb 53f 49f
1:00pm 6.5ft 6s 22 27 mph 1015.1mb 53f 49f
12:00pm 6ft 6s 22 29 mph 1014.4mb 53f 49f
11:00am 6ft 10s 20 25 mph 1014.1mb 53f 50f
10:00am 6ft 10s 22 25 mph 1013.5mb 53f 50f
9:00am 6.5ft 10s 22 27 mph 1013.3mb 53f 50f
8:00am 5.5ft 5s 25 29 mph 1013mb 53f 50f
7:00am 5ft 10s 22 27 mph 1013.2mb 54f 50f
6:00am 4.5ft 12s 22 27 mph 1013.7mb 54f 51f
5:00am 4ft 11s 18 22 mph 1013.9mb 54f 50f